Flag for Germany Weather past 2 weeks in Varel, Lower Saxony, Germany

Now
63 °F

Scattered clouds.


Feels Like: 63 °F
Forecast: 54 / 59 °F
Wind: 14 mph from Southwest

Location: Wittmundhaven

Current Time: Jul 8, 2015 at 9:04:20 AM

Latest Report: Jul 8, 2015 at 8:20 AM


Visibility: N/A

Pressure: 29.65 "Hg

Humidity: 68%

Dew point: 52 °F

Location of VarelLocation

Historic Weather in Varel — Graph

°F

Varel temperature yesterday

Maximum temperature yesterday: 77 °F (at 12:20 PM)
Minimum temperature yesterday: 55 °F (at 5:20 AM)
Average temperature yesterday: 68 °F

Past Weeks' High & Low Weather Summary

 TemperatureHumidityPressure
High95 °F (Jul 4, 4:20 PM)100% (Jun 28, 3:20 AM)30.27 "Hg (Jun 28, 3:20 AM)
Low48 °F (Jun 28, 5:20 AM)33% (Jul 1, 4:20 PM)29.62 "Hg (Jul 8, 12:20 AM)
Average66 °F73%30.07 "Hg
* Reported Jun 23 7:20 AM — Jul 8 7:20 AM, Varel, Weather by CustomWeather, © 2015

Note: Actual official high and low records may vary slightly from our data, if they occured in-between our weather recording intervals... More about our weather records

Advertising

Varel weather history for previous 24 hours

 ConditionsComfort  
Time TempWeatherWind HumidityBarometerVisibility
7:20 AM
Wed, Jul 8
61 °FScattered clouds.13 mph77%29.65 "HgN/A
6:20 AM59 °FCool.8 mph94%29.65 "Hg4 mi
5:20 AM59 °FCool.7 mph88%29.62 "Hg4 mi
4:20 AM59 °FCool.5 mph94%29.62 "Hg3 mi
3:20 AM61 °FCool.8 mph88%29.62 "Hg4 mi
2:20 AM61 °FCool.9 mph88%29.62 "Hg4 mi
1:20 AM63 °FMild.12 mph83%29.62 "Hg3 mi
12:20 AM64 °FMild.16 mph78%29.62 "Hg4 mi
11:20 PM
Tue, Jul 7
66 °FMild.16 mph73%29.65 "Hg4 mi
10:20 PM68 °FMild.13 mph69%29.65 "Hg4 mi
9:20 PM70 °FMild.14 mph60%29.65 "Hg4 mi
8:20 PM73 °FMild.13 mph61%29.65 "Hg4 mi
7:20 PM75 °FMild.7 mph54%29.65 "Hg4 mi
6:20 PM75 °FMild.5 mph65%29.68 "Hg4 mi
5:20 PM72 °FMild.6 mph73%29.68 "Hg4 mi
4:20 PM73 °FLight rain. Partly sunny.3 mph69%29.74 "HgN/A
3:20 PM73 °FLight rain. Broken clouds.5 mph65%29.77 "HgN/A
2:20 PM77 °FPartly sunny.5 mph47%29.77 "HgN/A
1:20 PM77 °FPartly sunny.8 mph47%29.80 "HgN/A
12:20 PM77 °FPartly sunny.8 mph51%29.83 "HgN/A
11:20 AM75 °FPartly sunny.9 mph50%29.86 "HgN/A
10:20 AM75 °FScattered clouds.12 mph47%29.86 "HgN/A
9:20 AM70 °FPassing clouds.8 mph60%29.89 "HgN/A
Weather by CustomWeather, © 2015

See weather overviewHow to use our weather pages